Location: Cisewo
(53.3833°N, 14.9000°E)
Time: 10:20:46
(UTC+00:00)

SME Rocket - Pass Details

Date: 18 April 2021
Orbit: 550 x 2651 km, 99.9° (Epoch: 14 May)

Event Time Altitude Azimuth Distance (km) Brightness Sun altitude
Rises 18:58:12 0° 15° (NNE) 2,750 6.6 -7.7°
Reaches altitude 10° 19:00:14 10° 12° (NNE) 1,844 5.8 -8.0°
Maximum altitude 19:03:57 62° 291° (WNW) 667 3.6 -8.5°
Drops below altitude 10° 19:08:18 10° 211° (SSW) 2,151 5.8 -9.0°
Sets 19:10:50 0° 209° (SSW) 3,266 6.7 -9.3°
